| time (UTC) | temp F | wind direction | speed knots | gust knots | rain 1hr in | rain 24hr in | rain mn in | humidity % | barometer mb |
| 20260502151923 | 54 | 151 | 0.9 | 0.9 | 0.00 | 0.03 | 0.03 | 80 | 1011.7 |
| 20260502151420 | 55 | 186 | 0.9 | 0.9 | 0.00 | 0.03 | 0.03 | 79 | 1011.8 |
| 20260502150918 | 55 | 178 | 0.0 | 0.9 | 0.00 | 0.03 | 0.03 | 77 | 1011.8 |
| 20260502150414 | 55 | 129 | 0.0 | 0.0 | 0.00 | 0.03 | 0.03 | 76 | 1011.7 |
| 20260502130300 | 54 | 172 | 0.0 | 0.0 | 0.00 | 0.03 | 0.03 | 87 | 1012.0 |
| 20260502123745 | 52 | 194 | 0.9 | 0.9 | 0.00 | 0.03 | 0.03 | 89 | 1011.8 |
| 20260502123242 | 52 | 278 | 0.9 | 0.9 | 0.00 | 0.03 | 0.03 | 90 | 1011.9 |
| 20260502122739 | 52 | 235 | 1.7 | 1.7 | 0.00 | 0.03 | 0.03 | 90 | 1011.9 |
| 20260502122235 | 52 | 181 | 0.0 | 0.0 | 0.00 | 0.03 | 0.03 | 90 | 1011.8 |
| 20260502121734 | 52 | 215 | 0.9 | 1.7 | 0.00 | 0.03 | 0.03 | 91 | 1011.9 |
| 20260502121231 | 52 | 198 | 0.9 | 1.7 | 0.00 | 0.03 | 0.03 | 91 | 1011.7 |
| 20260502120727 | 51 | 179 | 0.0 | 0.0 | 0.00 | 0.03 | 0.03 | 91 | 1012.0 |
| 20260502120224 | 51 | 190 | 0.0 | 0.0 | 0.00 | 0.03 | 0.03 | 91 | 1012.0 |
| 20260502115722 | 51 | 247 | 1.7 | 1.7 | 0.00 | 0.03 | 0.03 | 91 | 1012.1 |
| 20260502115218 | 51 | 231 | 0.9 | 0.9 | 0.00 | 0.03 | 0.03 | 91 | 1011.9 |
| 20260502114714 | 51 | 202 | 0.0 | 0.0 | 0.00 | 0.03 | 0.03 | 91 | 1012.0 |
| 20260502114212 | 50 | 225 | 0.9 | 0.9 | 0.00 | 0.03 | 0.03 | 91 | 1011.7 |
| 20260502113709 | 50 | 186 | 0.0 | 0.0 | 0.00 | 0.03 | 0.03 | 91 | 1011.9 |
| 20260502113207 | 50 | 159 | 0.0 | 0.0 | 0.00 | 0.03 | 0.03 | 91 | 1011.5 |
| 20260502112705 | 50 | 252 | 0.9 | 0.9 | 0.00 | 0.03 | 0.03 | 91 | 1011.7 |
| 20260502112202 | 50 | 166 | 0.9 | 0.9 | 0.00 | 0.03 | 0.03 | 90 | 1011.5 |
| 20260502111659 | 50 | 217 | 0.0 | 0.9 | 0.00 | 0.03 | 0.03 | 90 | 1011.5 |
| 20260502111156 | 50 | 172 | 0.0 | 0.0 | 0.07 | 0.03 | 0.03 | 90 | 1011.3 |
| 20260502110654 | 50 | 104 | 0.9 | 0.9 | 0.12 | 0.03 | 0.03 | 89 | 1011.1 |
| 20260502110151 | 51 | 113 | 1.7 | 1.7 | 0.05 | 0.02 | 0.02 | 88 | 1011.1 |
| 20260502105649 | 51 | 153 | 0.0 | 0.0 | 0.07 | 0.01 | 0.01 | 87 | 1011.5 |
| 20260502105145 | 51 | 160 | 0.0 | 0.0 | 0.07 | 0.01 | 0.01 | 87 | 1011.3 |
| 20260502104643 | 51 | 154 | 0.0 | 0.0 | 0.00 | 0.00 | 0.00 | 86 | 1011.5 |
| 20260502104140 | 51 | 190 | 0.0 | 0.0 | 0.00 | 0.00 | 0.00 | 86 | 1011.8 |
| 20260502103637 | 51 | 184 | 0.9 | 1.7 | 0.00 | 0.00 | 0.00 | 86 | 1011.7 |
| 20260502103135 | 51 | 254 | 1.7 | 1.7 | 0.00 | 0.00 | 0.00 | 86 | 1011.4 |
| 20260502102632 | 51 | 201 | 0.0 | 0.9 | 0.00 | 0.00 | 0.00 | 85 | 1011.3 |
| 20260502102129 | 51 | 245 | 1.7 | 1.7 | 0.00 | 0.00 | 0.00 | 85 | 1011.3 |
| 20260502101627 | 51 | 288 | 1.7 | 2.6 | 0.00 | 0.00 | 0.00 | 85 | 1011.4 |
| 20260502101125 | 51 | 224 | 1.7 | 1.7 | 0.00 | 0.00 | 0.00 | 85 | 1011.5 |
| 20260502100623 | 51 | 238 | 0.9 | 1.7 | 0.00 | 0.00 | 0.00 | 85 | 1011.5 |
| 20260502100121 | 51 | 223 | 3.5 | 5.2 | 0.00 | 0.00 | 0.00 | 85 | 1011.6 |
| 20260502091055 | 51 | 225 | 2.6 | 3.5 | 0.00 | 0.00 | 0.00 | 84 | 1011.4 |
| 20260502090552 | 51 | 245 | 1.7 | 2.6 | 0.00 | 0.00 | 0.00 | 84 | 1011.2 |
| 20260502071446 | 51 | 230 | 1.7 | 2.6 | 0.00 | 0.00 | 0.00 | 88 | 1011.7 |
| 20260502070944 | 51 | 249 | 2.6 | 3.5 | 0.00 | 0.00 | 0.00 | 88 | 1011.7 |
| 20260502070442 | 51 | 170 | 0.0 | 0.9 | 0.00 | 0.00 | 0.00 | 88 | 1011.7 |
| 20260502065940 | 51 | 174 | 0.9 | 1.7 | 0.00 | 0.00 | 0.00 | 87 | 1011.7 |
| 20260502065439 | 51 | 162 | 0.9 | 0.9 | 0.00 | 0.00 | 0.00 | 87 | 1011.8 |
| 20260502064936 | 51 | 222 | 1.7 | 2.6 | 0.00 | 0.00 | 0.00 | 87 | 1011.7 |
| 20260502064434 | 51 | 231 | 1.7 | 2.6 | 0.00 | 0.00 | 0.00 | 87 | 1011.5 |
| 20260502063931 | 51 | 200 | 2.6 | 2.6 | 0.00 | 0.00 | 0.00 | 87 | 1011.7 |
| 20260502063429 | 51 | 120 | 0.9 | 1.7 | 0.00 | 0.00 | 0.00 | 87 | 1011.7 |
| 20260502062926 | 51 | 229 | 2.6 | 3.5 | 0.00 | 0.00 | 0.00 | 87 | 1011.8 |
| 20260502062423 | 51 | 186 | 0.0 | 0.9 | 0.00 | 0.00 | 0.00 | 87 | 1011.9 |
| 20260502061922 | 51 | 172 | 0.9 | 1.7 | 0.00 | 0.00 | 0.00 | 87 | 1011.9 |
| 20260502061420 | 51 | 142 | 0.9 | 0.9 | 0.00 | 0.00 | 0.00 | 86 | 1012.0 |
| 20260502060915 | 51 | 163 | 2.6 | 3.5 | 0.00 | 0.00 | 0.00 | 86 | 1012.0 |
| 20260502060410 | 51 | 205 | 0.9 | 1.7 | 0.00 | 0.00 | 0.00 | 86 | 1012.1 |
| 20260502055908 | 51 | 281 | 1.7 | 3.5 | 0.00 | 0.00 | 0.00 | 86 | 1012.0 |
| 20260502055406 | 51 | 223 | 0.9 | 1.7 | 0.00 | 0.00 | 0.00 | 86 | 1012.0 |
| 20260502054905 | 51 | 210 | 1.7 | 2.6 | 0.00 | 0.00 | 0.00 | 86 | 1012.1 |
| 20260502054402 | 51 | 202 | 0.9 | 0.9 | 0.00 | 0.00 | 0.00 | 86 | 1011.7 |
| 20260502053900 | 51 | 181 | 0.9 | 1.7 | 0.00 | 0.00 | 0.00 | 85 | 1011.7 |
| 20260502053357 | 51 | 179 | 0.9 | 1.7 | 0.00 | 0.00 | 0.00 | 85 | 1011.5 |
| 20260502052854 | 51 | 163 | 0.9 | 0.9 | 0.00 | 0.00 | 0.00 | 84 | 1011.7 |
| 20260502052352 | 51 | 180 | 0.9 | 0.9 | 0.00 | 0.00 | 0.00 | 83 | 1011.8 |
| 20260502051850 | 51 | 195 | 0.9 | 1.7 | 0.00 | 0.00 | 0.00 | 83 | 1011.5 |
| 20260502051348 | 51 | 157 | 0.0 | 0.9 | 0.00 | 0.00 | 0.00 | 82 | 1011.6 |
| 20260502050844 | 51 | 246 | 1.7 | 2.6 | 0.00 | 0.00 | 0.00 | 82 | 1011.8 |
| 20260502050341 | 51 | 187 | 3.5 | 6.1 | 0.00 | 0.00 | 0.00 | 82 | 1011.8 |
| 20260502045838 | 51 | 207 | 0.9 | 0.9 | 0.00 | 0.00 | 0.00 | 82 | 1011.7 |
| 20260502045335 | 51 | 190 | 2.6 | 3.5 | 0.00 | 0.00 | 0.00 | 82 | 1011.9 |
| 20260502044832 | 51 | 129 | 0.9 | 0.9 | 0.00 | 0.00 | 0.00 | 81 | 1012.0 |
| 20260502044328 | 51 | 162 | 0.9 | 0.9 | 0.00 | 0.00 | 0.00 | 81 | 1011.9 |
| 20260502043825 | 51 | 214 | 0.9 | 0.9 | 0.00 | 0.00 | 0.00 | 81 | 1011.9 |
| 20260502043323 | 51 | 233 | 1.7 | 1.7 | 0.00 | 0.00 | 0.00 | 81 | 1011.9 |
| 20260502042822 | 51 | 141 | 1.7 | 2.6 | 0.00 | 0.00 | 0.00 | 81 | 1011.9 |
| 20260502042320 | 51 | 245 | 1.7 | 2.6 | 0.00 | 0.00 | 0.00 | 80 | 1012.1 |
| 20260502041817 | 51 | 181 | 1.7 | 1.7 | 0.00 | 0.00 | 0.00 | 80 | 1012.1 |
| 20260502041314 | 51 | 222 | 1.7 | 2.6 | 0.00 | 0.00 | 0.00 | 80 | 1012.2 |
| 20260502040812 | 51 | 167 | 0.9 | 1.7 | 0.00 | 0.00 | 0.00 | 80 | 1012.0 |
| 20260502040308 | 51 | 245 | 1.7 | 1.7 | 0.00 | 0.00 | 0.00 | 80 | 1012.0 |
| 20260502035804 | 51 | 242 | 2.6 | 3.5 | 0.00 | 0.00 | 0.00 | 80 | 1012.1 |
| 20260502035301 | 51 | 179 | 0.0 | 0.9 | 0.00 | 0.00 | 0.00 | 80 | 1012.0 |
| 20260502034758 | 51 | 276 | 1.7 | 2.6 | 0.00 | 0.00 | 0.00 | 79 | 1011.9 |
| 20260502034257 | 52 | 181 | 0.9 | 1.7 | 0.00 | 0.00 | 0.00 | 79 | 1011.8 |
| 20260502033755 | 52 | 125 | 0.0 | 0.9 | 0.00 | 0.00 | 0.00 | 78 | 1011.7 |
| 20260502033252 | 52 | 161 | 1.7 | 1.7 | 0.00 | 0.00 | 0.00 | 78 | 1011.8 |
| 20260502032748 | 52 | 246 | 0.9 | 1.7 | 0.00 | 0.00 | 0.00 | 78 | 1011.9 |
| 20260502032244 | 52 | 187 | 0.0 | 0.9 | 0.00 | 0.00 | 0.00 | 78 | 1011.8 |
| 20260502031743 | 52 | 204 | 1.7 | 2.6 | 0.00 | 0.00 | 0.00 | 78 | 1012.0 |
| 20260502031240 | 51 | 198 | 2.6 | 5.2 | 0.00 | 0.00 | 0.00 | 78 | 1012.1 |
| 20260502030739 | 51 | 194 | 2.6 | 3.5 | 0.00 | 0.00 | 0.00 | 78 | 1012.1 |
| 20260502030236 | 51 | 224 | 0.9 | 1.7 | 0.00 | 0.00 | 0.00 | 78 | 1012.1 |
| 20260502025733 | 51 | 113 | 1.7 | 2.6 | 0.00 | 0.00 | 0.00 | 79 | 1012.2 |
| 20260502025231 | 51 | 237 | 0.9 | 1.7 | 0.00 | 0.00 | 0.00 | 78 | 1012.3 |
| 20260502024729 | 51 | 208 | 4.3 | 6.1 | 0.00 | 0.00 | 0.00 | 78 | 1012.3 |
| 20260502024227 | 51 | 207 | 3.5 | 5.2 | 0.00 | 0.00 | 0.00 | 78 | 1012.1 |
| 20260502023725 | 51 | 206 | 2.6 | 3.5 | 0.00 | 0.00 | 0.00 | 79 | 1012.1 |
| 20260502023222 | 51 | 184 | 3.5 | 3.5 | 0.00 | 0.00 | 0.00 | 79 | 1012.0 |
| 20260502022719 | 51 | 294 | 2.6 | 3.5 | 0.00 | 0.00 | 0.00 | 79 | 1012.2 |
| 20260502022215 | 51 | 111 | 3.5 | 6.1 | 0.00 | 0.00 | 0.00 | 79 | 1011.9 |
| 20260502021713 | 51 | 155 | 3.5 | 5.2 | 0.00 | 0.00 | 0.00 | 79 | 1012.2 |
| 20260502021210 | 51 | 145 | 3.5 | 5.2 | 0.00 | 0.00 | 0.00 | 79 | 1012.2 |
| 20260502020707 | 51 | 172 | 4.3 | 6.1 | 0.00 | 0.00 | 0.00 | 78 | 1012.2 |
| 20260502020204 | 51 | 204 | 1.7 | 3.5 | 0.00 | 0.00 | 0.00 | 79 | 1012.1 |
| 20260502015702 | 51 | 203 | 1.7 | 1.7 | 0.00 | 0.00 | 0.00 | 79 | 1012.1 |
| 20260502015158 | 51 | 132 | 1.7 | 3.5 | 0.00 | 0.00 | 0.00 | 79 | 1012.2 |
| 20260502014656 | 51 | 197 | 5.2 | 7.8 | 0.00 | 0.00 | 0.00 | 79 | 1012.2 |
| 20260502014152 | 51 | 113 | 3.5 | 6.1 | 0.00 | 0.00 | 0.00 | 79 | 1011.9 |
| 20260502013648 | 51 | 216 | 3.5 | 6.1 | 0.00 | 0.00 | 0.00 | 79 | 1012.2 |
| 20260502013144 | 51 | 169 | 4.3 | 7.8 | 0.00 | 0.00 | 0.00 | 79 | 1011.9 |
| 20260502012641 | 51 | 164 | 5.2 | 7.8 | 0.00 | 0.00 | 0.00 | 78 | 1011.7 |
| 20260502012140 | 51 | 196 | 4.3 | 6.1 | 0.00 | 0.00 | 0.00 | 78 | 1011.9 |
| 20260502011636 | 51 | 164 | 0.9 | 2.6 | 0.00 | 0.00 | 0.00 | 77 | 1011.9 |
| 20260502011131 | 51 | 203 | 7.8 | 11.3 | 0.00 | 0.00 | 0.00 | 76 | 1011.8 |
| 20260502010629 | 52 | 255 | 1.7 | 2.6 | 0.00 | 0.00 | 0.00 | 75 | 1011.7 |
| 20260502010126 | 52 | 213 | 3.5 | 6.1 | 0.00 | 0.00 | 0.00 | 74 | 1011.7 |
| 20260502005623 | 52 | 234 | 1.7 | 1.7 | 0.00 | 0.00 | 0.00 | 74 | 1011.7 |
| 20260502005121 | 52 | 193 | 4.3 | 6.1 | 0.00 | 0.00 | 0.00 | 74 | 1011.7 |
| 20260502004616 | 52 | 178 | 0.9 | 1.7 | 0.00 | 0.00 | 0.00 | 74 | 1011.7 |
| 20260502004114 | 52 | 225 | 3.5 | 5.2 | 0.00 | 0.00 | 0.00 | 74 | 1011.7 |
| 20260502003612 | 52 | 154 | 3.5 | 5.2 | 0.00 | 0.00 | 0.00 | 74 | 1011.6 |
| 20260502003108 | 52 | 198 | 5.2 | 6.1 | 0.00 | 0.00 | 0.00 | 74 | 1011.6 |
| 20260502002604 | 52 | 203 | 4.3 | 6.1 | 0.00 | 0.00 | 0.00 | 76 | 1011.5 |
| 20260502002102 | 52 | 171 | 2.6 | 3.5 | 0.00 | 0.00 | 0.00 | 77 | 1011.5 |
| 20260502001600 | 51 | 149 | 4.3 | 6.1 | 0.00 | 0.00 | 0.00 | 78 | 1011.4 |
| 20260502001056 | 52 | 128 | 3.5 | 5.2 | 0.00 | 0.00 | 0.00 | 78 | 1011.5 |
| 20260502000555 | 52 | 186 | 0.9 | 0.9 | 0.00 | 0.00 | 0.00 | 78 | 1011.4 |
| 20260502000051 | 52 | 184 | 1.7 | 1.7 | 0.00 | 0.00 | 0.00 | 77 | 1011.5 |
| 20260501235547 | 52 | 226 | 3.5 | 5.2 | 0.00 | 0.00 | 0.00 | 78 | 1011.4 |
| 20260501235043 | 52 | 201 | 3.5 | 5.2 | 0.00 | 0.00 | 0.00 | 77 | 1011.1 |
| 20260501234539 | 52 | 200 | 1.7 | 2.6 | 0.00 | 0.00 | 0.00 | 77 | 1011.2 |
| 20260501234037 | 52 | 183 | 2.6 | 3.5 | 0.00 | 0.00 | 0.00 | 76 | 1011.4 |
| 20260501233535 | 52 | 193 | 4.3 | 6.1 | 0.00 | 0.00 | 0.00 | 76 | 1011.3 |
| 20260501233032 | 52 | 63 | 2.6 | 3.5 | 0.00 | 0.00 | 0.00 | 76 | 1011.1 |
| 20260501232527 | 52 | 186 | 1.7 | 2.6 | 0.00 | 0.00 | 0.00 | 76 | 1011.1 |
| 20260501232025 | 52 | 191 | 0.9 | 0.9 | 0.00 | 0.00 | 0.00 | 75 | 1011.1 |
| 20260501231523 | 53 | 170 | 1.7 | 1.7 | 0.00 | 0.00 | 0.00 | 75 | 1011.0 |
| 20260501231021 | 53 | 132 | 2.6 | 3.5 | 0.00 | 0.00 | 0.00 | 74 | 1011.1 |
| 20260501230520 | 53 | 151 | 0.9 | 1.7 | 0.00 | 0.00 | 0.00 | 74 | 1011.0 |
| 20260501230017 | 53 | 185 | 0.9 | 1.7 | 0.00 | 0.00 | 0.00 | 73 | 1011.1 |
| 20260501225515 | 53 | 167 | 3.5 | 5.2 | 0.00 | 0.00 | 0.00 | 73 | 1011.1 |
| 20260501225010 | 53 | 216 | 0.9 | 1.7 | 0.00 | 0.00 | 0.00 | 73 | 1010.9 |
| 20260501224508 | 54 | 218 | 3.5 | 3.5 | 0.00 | 0.00 | 0.00 | 72 | 1011.0 |
| 20260501224005 | 54 | 168 | 0.9 | 1.7 | 0.00 | 0.00 | 0.00 | 72 | 1010.9 |
| 20260501223501 | 54 | 180 | 4.3 | 6.1 | 0.00 | 0.00 | 0.00 | 71 | 1011.1 |
| 20260501222957 | 54 | 93 | 1.7 | 5.2 | 0.00 | 0.00 | 0.00 | 71 | 1011.0 |
| 20260501222454 | 54 | 255 | 4.3 | 7.0 | 0.00 | 0.00 | 0.00 | 71 | 1011.2 |
| 20260501221950 | 54 | 271 | 4.3 | 6.1 | 0.00 | 0.00 | 0.00 | 70 | 1011.1 |
| 20260501221447 | 55 | 197 | 3.5 | 7.0 | 0.00 | 0.00 | 0.00 | 69 | 1011.2 |
| 20260501220946 | 55 | 173 | 1.7 | 3.5 | 0.00 | 0.00 | 0.00 | 68 | 1011.2 |
| 20260501220443 | 55 | 133 | 5.2 | 7.0 | 0.00 | 0.00 | 0.00 | 66 | 1011.1 |
| 20260501215938 | 55 | 188 | 4.3 | 5.2 | 0.00 | 0.00 | 0.00 | 66 | 1011.1 |
| 20260501215436 | 55 | 234 | 3.5 | 5.2 | 0.00 | 0.00 | 0.00 | 65 | 1011.2 |
| 20260501214931 | 55 | 167 | 4.3 | 6.1 | 0.00 | 0.00 | 0.00 | 65 | 1011.1 |
| 20260501214427 | 55 | 206 | 2.6 | 3.5 | 0.00 | 0.00 | 0.00 | 65 | 1010.8 |
| 20260501213922 | 55 | 172 | 5.2 | 6.1 | 0.00 | 0.00 | 0.00 | 64 | 1011.1 |
| 20260501213420 | 56 | 163 | 0.9 | 1.7 | 0.00 | 0.00 | 0.00 | 62 | 1011.3 |
| 20260501212915 | 56 | 198 | 4.3 | 6.1 | 0.00 | 0.00 | 0.00 | 60 | 1011.2 |
| 20260501212412 | 57 | 215 | 3.5 | 7.8 | 0.00 | 0.00 | 0.00 | 60 | 1011.1 |
| 20260501211908 | 56 | 246 | 1.7 | 2.6 | 0.00 | 0.00 | 0.00 | 60 | 1010.9 |
| 20260501211406 | 56 | 231 | 2.6 | 3.5 | 0.00 | 0.00 | 0.00 | 59 | 1011.1 |
| 20260501210903 | 57 | 199 | 7.8 | 11.3 | 0.00 | 0.00 | 0.00 | 58 | 1011.0 |
| 20260501210400 | 57 | 210 | 1.7 | 2.6 | 0.00 | 0.00 | 0.00 | 58 | 1010.8 |
| 20260501205856 | 57 | 102 | 3.5 | 7.8 | 0.00 | 0.00 | 0.00 | 55 | 1010.9 |
| 20260501205353 | 57 | 293 | 3.5 | 3.5 | 0.00 | 0.00 | 0.00 | 55 | 1011.0 |
| 20260501204850 | 57 | 193 | 7.8 | 9.6 | 0.00 | 0.00 | 0.00 | 55 | 1010.9 |
| 20260501204347 | 57 | 237 | 3.5 | 6.1 | 0.00 | 0.00 | 0.00 | 56 | 1011.0 |
| 20260501203843 | 57 | 179 | 4.3 | 13.0 | 0.00 | 0.00 | 0.00 | 55 | 1011.1 |
| 20260501203340 | 59 | 147 | 7.0 | 8.7 | 0.00 | 0.00 | 0.00 | 52 | 1010.9 |
| 20260501202837 | 59 | 181 | 6.1 | 11.3 | 0.00 | 0.00 | 0.00 | 53 | 1010.9 |
| 20260501202334 | 59 | 179 | 6.1 | 7.8 | 0.00 | 0.00 | 0.00 | 52 | 1010.8 |
| 20260501201831 | 60 | 199 | 5.2 | 7.0 | 0.00 | 0.00 | 0.00 | 50 | 1010.8 |
| 20260501201328 | 61 | 280 | 1.7 | 2.6 | 0.00 | 0.00 | 0.00 | 49 | 1010.6 |
| 20260501200824 | 60 | 216 | 1.7 | 2.6 | 0.00 | 0.00 | 0.00 | 48 | 1010.7 |
| 20260501200321 | 60 | 195 | 5.2 | 6.1 | 0.00 | 0.00 | 0.00 | 46 | 1010.6 |
| 20260501195819 | 60 | 255 | 6.1 | 8.7 | 0.00 | 0.00 | 0.00 | 48 | 1010.6 |
| 20260501195315 | 60 | 258 | 3.5 | 6.1 | 0.00 | 0.00 | 0.00 | 47 | 1010.9 |
| 20260501194811 | 60 | 213 | 1.7 | 3.5 | 0.00 | 0.00 | 0.00 | 50 | 1010.9 |
| 20260501194307 | 60 | 301 | 5.2 | 7.0 | 0.00 | 0.00 | 0.00 | 50 | 1010.8 |
| 20260501193803 | 61 | 191 | 4.3 | 5.2 | 0.00 | 0.00 | 0.00 | 50 | 1010.8 |
| 20260501193302 | 62 | 358 | 3.5 | 5.2 | 0.00 | 0.00 | 0.00 | 50 | 1010.9 |
| 20260501192759 | 63 | 266 | 6.1 | 7.8 | 0.00 | 0.00 | 0.00 | 41 | 1010.9 |
| 20260501192255 | 63 | 167 | 5.2 | 7.8 | 0.00 | 0.00 | 0.00 | 40 | 1010.8 |
| 20260501191753 | 63 | 215 | 1.7 | 2.6 | 0.00 | 0.00 | 0.00 | 41 | 1011.1 |
| 20260501191250 | 62 | 232 | 2.6 | 3.5 | 0.00 | 0.00 | 0.00 | 41 | 1011.0 |
| 20260501190747 | 62 | 252 | 4.3 | 7.8 | 0.00 | 0.00 | 0.00 | 42 | 1011.1 |
| 20260501190242 | 63 | 304 | 5.2 | 7.8 | 0.00 | 0.00 | 0.00 | 40 | 1011.2 |
| 20260501185738 | 62 | 232 | 1.7 | 3.5 | 0.00 | 0.00 | 0.00 | 41 | 1011.1 |
| 20260501185234 | 62 | 139 | 5.2 | 7.0 | 0.00 | 0.00 | 0.00 | 41 | 1011.1 |
| 20260501184731 | 61 | 147 | 3.5 | 5.2 | 0.00 | 0.00 | 0.00 | 42 | 1011.2 |
| 20260501184226 | 61 | 179 | 7.0 | 8.7 | 0.00 | 0.00 | 0.00 | 42 | 1011.3 |
| 20260501183722 | 61 | 183 | 3.5 | 6.1 | 0.00 | 0.00 | 0.00 | 43 | 1011.4 |
| 20260501183219 | 60 | 237 | 3.5 | 5.2 | 0.00 | 0.00 | 0.00 | 43 | 1011.2 |
| 20260501182716 | 60 | 262 | 3.5 | 5.2 | 0.00 | 0.00 | 0.00 | 45 | 1011.3 |
| 20260501182213 | 60 | 140 | 4.3 | 7.0 | 0.00 | 0.00 | 0.00 | 44 | 1011.3 |
| 20260501181709 | 60 | 244 | 3.5 | 3.5 | 0.00 | 0.00 | 0.00 | 45 | 1011.4 |
| 20260501181207 | 60 | 195 | 5.2 | 7.0 | 0.00 | 0.00 | 0.00 | 45 | 1011.3 |
| 20260501180705 | 60 | 38 | 2.6 | 3.5 | 0.00 | 0.00 | 0.00 | 46 | 1011.3 |
| 20260501180200 | 60 | 227 | 5.2 | 7.8 | 0.00 | 0.00 | 0.00 | 45 | 1011.4 |
| 20260501175657 | 60 | 236 | 4.3 | 7.0 | 0.00 | 0.00 | 0.00 | 48 | 1011.5 |
| 20260501175154 | 60 | 196 | 5.2 | 7.0 | 0.00 | 0.00 | 0.00 | 44 | 1011.5 |
| 20260501174651 | 60 | 300 | 2.6 | 5.2 | 0.00 | 0.00 | 0.00 | 44 | 1011.4 |
| 20260501174148 | 60 | 193 | 0.9 | 0.9 | 0.00 | 0.00 | 0.00 | 47 | 1011.6 |
| 20260501173646 | 60 | 215 | 3.5 | 7.0 | 0.00 | 0.00 | 0.00 | 46 | 1011.7 |
| 20260501173143 | 59 | 195 | 3.5 | 5.2 | 0.00 | 0.00 | 0.00 | 46 | 1011.6 |
| 20260501172639 | 59 | 265 | 4.3 | 6.1 | 0.00 | 0.00 | 0.00 | 47 | 1011.8 |
| 20260501172134 | 59 | 248 | 5.2 | 7.0 | 0.00 | 0.00 | 0.00 | 46 | 1011.8 |
| 20260501171630 | 60 | 204 | 3.5 | 6.1 | 0.00 | 0.00 | 0.00 | 48 | 1011.7 |
| 20260501171127 | 61 | 243 | 5.2 | 8.7 | 0.00 | 0.00 | 0.00 | 46 | 1011.7 |
| 20260501170624 | 61 | 248 | 0.9 | 1.7 | 0.00 | 0.00 | 0.00 | 44 | 1011.8 |
| 20260501170121 | 62 | 156 | 2.6 | 3.5 | 0.00 | 0.00 | 0.00 | 34 | 1011.6 |
| 20260501165618 | 61 | 133 | 1.7 | 1.7 | 0.00 | 0.00 | 0.00 | 35 | 1011.7 |
| 20260501165115 | 61 | 181 | 0.0 | 0.9 | 0.00 | 0.00 | 0.00 | 36 | 1011.7 |
| 20260501164614 | 61 | 168 | 0.9 | 0.9 | 0.00 | 0.00 | 0.00 | 34 | 1011.8 |
| 20260501164110 | 61 | 113 | 0.0 | 0.0 | 0.00 | 0.00 | 0.00 | 37 | 1011.9 |
| 20260501163607 | 60 | 222 | 4.3 | 6.1 | 0.00 | 0.00 | 0.00 | 36 | 1011.9 |
| 20260501163104 | 60 | 325 | 2.6 | 3.5 | 0.00 | 0.00 | 0.00 | 37 | 1012.1 |
| 20260501162600 | 60 | 245 | 2.6 | 3.5 | 0.00 | 0.00 | 0.00 | 37 | 1012.1 |
| 20260501162057 | 60 | 330 | 2.6 | 3.5 | 0.00 | 0.00 | 0.00 | 37 | 1012.2 |
| 20260501161554 | 61 | 294 | 4.3 | 5.2 | 0.00 | 0.00 | 0.00 | 35 | 1012.4 |
| 20260501161050 | 60 | 284 | 2.6 | 2.6 | 0.00 | 0.00 | 0.00 | 36 | 1012.4 |
| 20260501160548 | 60 | 289 | 1.7 | 2.6 | 0.00 | 0.00 | 0.00 | 35 | 1012.4 |
| 20260501160044 | 60 | 241 | 3.5 | 5.2 | 0.00 | 0.00 | 0.00 | 37 | 1012.5 |
| 20260501155541 | 60 | 351 | 3.5 | 5.2 | 0.00 | 0.00 | 0.00 | 38 | 1012.6 |